Flag for Austria Weather past 2 weeks in Horn, Lower Austria, Austria

Now
57 °F

Cool.


Feels Like: 57 °F
Forecast: 47 / 63 °F
Wind: 3 mph from Northwest

Location: Retz

Current Time: Oct 2, 2014 at 5:03:24 AM

Latest Report: Oct 2, 2014 at 4:00 AM


Visibility: N/A

Pressure: 30.31 "Hg

Humidity: 95%

Dew point: 56 °F

Location of HornLocation

Historic Weather in Horn — Graph

°F

Horn temperature yesterday

Maximum temperature yesterday: 61 °F (at 12:00 PM)
Minimum temperature yesterday: 55 °F (at 12:00 AM)
Average temperature yesterday: 59 °F

Past Weeks' High & Low Weather Summary

 TemperatureHumidityPressure
High75 °F (Sep 20, 2:00 PM)100% (Sep 30, 7:00 AM)30.40 "Hg (Sep 30, 7:00 AM)
Low41 °F (Sep 24, 5:00 AM)55% (Sep 18, 2:00 PM)29.79 "Hg (Sep 22, 2:00 AM)
Average57 °F83%30.10 "Hg
* Reported Sep 17 3:00 AM — Oct 2 3:00 AM, Horn, Weather by CustomWeather, © 2014

Note: Actual official high and low records may vary slightly from our data, if they occured in-between our weather recording intervals... More about our weather records

Advertising

Horn weather history for previous 24 hours

 ConditionsComfort  
Time TempWeatherWind HumidityBarometerVisibility
3:00 AM
Oct 2
57 °FCool.2 mph96%30.31 "HgN/A
2:00 AM57 °FCool.2 mph96%30.31 "HgN/A
1:00 AM58 °FCool.2 mph95%30.30 "HgN/A
12:00 AM58 °FFog.5 mph98%30.29 "HgN/A
11:00 PM
Oct 1
58 °FCool.6 mph99%30.29 "HgN/A
10:00 PM58 °FFog.7 mph98%30.27 "HgN/A
9:00 PM59 °FSprinkles. Overcast.3 mph96%30.25 "HgN/A
8:00 PM59 °FCool.2 mph98%30.25 "HgN/A
7:00 PM60 °FFog.3 mph99%30.25 "HgN/A
6:00 PM60 °FFog.2 mph98%30.25 "HgN/A
5:00 PM61 °FCool.1 mph98%30.25 "HgN/A
4:00 PM61 °FSprinkles. Cloudy.2 mph96%30.25 "HgN/A
3:00 PM61 °FFog.1 mph96%30.25 "HgN/A
2:00 PM61 °FCool.1 mph96%30.27 "HgN/A
1:00 PM61 °FFog.1 mph96%30.27 "HgN/A
12:00 PM61 °FSprinkles. Cloudy.No wind96%30.28 "HgN/A
11:00 AM61 °FCool.No wind95%30.28 "HgN/A
10:00 AM59 °FFog.1 mph99%30.28 "HgN/A
9:00 AM59 °FFog.1 mph98%30.27 "HgN/A
8:00 AM59 °FCool.1 mph98%30.26 "HgN/A
7:00 AM59 °FFog.2 mph96%30.26 "HgN/A
6:00 AM59 °FFog.3 mph97%30.26 "HgN/A
5:00 AM60 °FCool.6 mph94%30.26 "HgN/A
Weather by CustomWeather, © 2014

See weather overviewHow to use our weather pages